Newark, NJ

3:13 AM EDT on October 23, 2019 (GMT -0400)
Newark International

Weather History for KEWR - May, 2019

Change the Weather History Date:

Saturday, May 18, 2019

  Actual Average Record
Temperature  
Mean Temperature 68 °F 63 °F  
Max Temperature 78 °F 73 °F 94 °F (2017)
Min Temperature 57 °F 54 °F 43 °F (1955)
Degree Days  
Heating Degree Days 0 4  
Month to date heating degree days 104 101  
Since 1 July heating degree days 4698 4821  
Cooling Degree Days 2 2  
Month to date cooling degree days 8 23  
Year to date cooling degree days 23 35  
Growing Degree Days 18 (Base 50)    
Moisture  
Dew Point 43 °F    
Average Humidity 44    
Maximum Humidity 60    
Minimum Humidity 23    
Precipitation  
Precipitation 0.00 in 0.13 in 2.26 in (2011)
Month to date precipitation 4.67 2.26  
Year to date precipitation 20.32 17.06  
Snow  
Snow 0.00 in 0.00 in 0.00 in (2002)
Month to date snowfall 0.0 0.0  
Since 1 July snowfall 22.0 28.5  
Snow Depth 0.00 in    
Sea Level Pressure  
Sea Level Pressure 29.97 in    
Wind  
Wind Speed 8 mph ()    
Max Wind Speed 18 mph    
Max Gust Speed 24 mph    
Visibility 10.0 miles    
Events      
T = Trace of Precipitation, MM = Missing Value Source: Averaged Metar Reports

Daily Weather History Graph

Daily Weather History Graph

Search for Another Location

Airport or City:

Astronomy

May. 18, 2019 Rise Set
Actual Time 5:37 AM EDT 8:09 PM EDT
Civil Twilight 5:05 AM EDT 8:41 PM EDT
Nautical Twilight 4:26 AM EDT 9:20 PM EDT
Astronomical Twilight 3:43 AM EDT 10:04 PM EDT
Moon 8:01 PM EDT (5/18) 5:42 AM EDT (5/18)
Length of Visible Light 15h 35m
Length of Day
14h 32m
Full, 100% of the Moon is Illuminated
May 18
Full
May 18
Full
May 26
Last Quarter
Jun 3
New
Jun 10
First Quarter

Hourly Weather History & Observations

Time (EDT) Temp. Dew Point Humidity Pressure Visibility Wind Dir Wind Speed Gust Speed Precip Events Conditions
12:51 AM 66.0 °F 50.0 °F 56% 29.84 in 10.0 mi NNW 12.7 mph - N/A   Mostly Cloudy
1:51 AM 64.0 °F 46.0 °F 52% 29.86 in 10.0 mi North 9.2 mph - N/A   Mostly Cloudy
2:51 AM 61.0 °F 45.0 °F 56% 29.86 in 10.0 mi North 8.1 mph - N/A   Mostly Cloudy
3:51 AM 60.1 °F 44.1 °F 55% 29.86 in 10.0 mi NW 8.1 mph - N/A   Mostly Cloudy
4:51 AM 59.0 °F 41.0 °F 51% 29.88 in 10.0 mi NNW 11.5 mph - N/A   Scattered Clouds
5:51 AM 57.9 °F 42.1 °F 56% 29.92 in 10.0 mi NW 13.8 mph - N/A   Scattered Clouds
6:51 AM 59.0 °F 43.0 °F 55% 29.95 in 10.0 mi NW 12.7 mph - N/A   Partly Cloudy
7:51 AM 62.1 °F 43.0 °F 50% 29.97 in 10.0 mi North 16.1 mph - N/A   Partly Cloudy
8:51 AM 64.9 °F 42.1 °F 43% 29.99 in 10.0 mi North 10.4 mph - N/A   Scattered Clouds
9:51 AM 66.9 °F 39.9 °F 37% 30.01 in 10.0 mi North 12.7 mph 20.7 mph N/A   Scattered Clouds
10:51 AM 69.1 °F 41.0 °F 36% 30.01 in 10.0 mi NW 9.2 mph - N/A   Mostly Cloudy
11:51 AM 72.0 °F 37.9 °F 29% 29.99 in 10.0 mi NW 5.8 mph - N/A   Mostly Cloudy
12:51 PM 73.0 °F 36.0 °F 26% 29.99 in 10.0 mi NNW 8.1 mph 17.3 mph N/A   Scattered Clouds
1:51 PM 75.0 °F 36.0 °F 24% 29.99 in 10.0 mi Variable 4.6 mph - N/A   Scattered Clouds
2:51 PM 75.9 °F 37.0 °F 24% 29.98 in 10.0 mi Variable 6.9 mph - N/A   Mostly Cloudy
3:51 PM 78.1 °F 39.0 °F 25% 29.96 in 10.0 mi Variable 4.6 mph - N/A   Mostly Cloudy
4:51 PM 73.9 °F 45.0 °F 35% 29.97 in 10.0 mi SSE 6.9 mph - N/A   Mostly Cloudy
5:51 PM 73.0 °F 46.0 °F 38% 29.98 in 10.0 mi East 10.4 mph - N/A   Scattered Clouds
6:51 PM 71.1 °F 46.0 °F 41% 29.98 in 10.0 mi ESE 6.9 mph - N/A   Mostly Cloudy
7:51 PM 68.0 °F 46.9 °F 47% 30.00 in 10.0 mi SE 5.8 mph - N/A   Mostly Cloudy
8:51 PM 64.9 °F 46.9 °F 52% 30.02 in 10.0 mi SE 3.5 mph - N/A   Mostly Cloudy
9:51 PM 63.0 °F 48.0 °F 58% 30.05 in 10.0 mi South 4.6 mph - N/A   Scattered Clouds
10:51 PM 62.1 °F 48.0 °F 60% 30.06 in 10.0 mi SSE 5.8 mph - N/A   Scattered Clouds
11:51 PM 62.1 °F 46.9 °F 58% 30.07 in 10.0 mi South 8.1 mph - N/A   Partly Cloudy